| time (UTC) | temp F | wind direction | speed MPH | gust MPH | rain 1hr in | rain 24hr in | rain mn in | humidity % | barometer mb |
| 20260503233335 | 56 | 238 | 7.0 | 14.0 | 0.00 | 0.00 | 0.00 | 49 | 1010.7 |
| 20260503232829 | 56 | 266 | 7.0 | 16.0 | 0.00 | 0.00 | 0.00 | 50 | 1010.6 |
| 20260503232313 | 56 | 243 | 8.0 | 15.0 | 0.00 | 0.00 | 0.00 | 49 | 1010.6 |
| 20260503231858 | 56 | 232 | 7.0 | 16.0 | 0.00 | 0.00 | 0.00 | 49 | 1010.7 |
| 20260503231319 | 56 | 242 | 7.0 | 16.0 | 0.00 | 0.00 | 0.00 | 49 | 1010.7 |
| 20260503230853 | 56 | 222 | 8.0 | 16.0 | 0.00 | 0.00 | 0.00 | 49 | 1010.7 |
| 20260503230315 | 56 | 244 | 7.0 | 14.0 | 0.00 | 0.00 | 0.00 | 48 | 1010.7 |
| 20260503225835 | 56 | 221 | 6.0 | 11.0 | 0.00 | 0.00 | 0.00 | 49 | 1010.7 |
| 20260503225401 | 56 | 240 | 5.0 | 18.0 | 0.00 | 0.00 | 0.00 | 48 | 1010.7 |
| 20260503224831 | 56 | 265 | 9.0 | 18.0 | 0.00 | 0.00 | 0.00 | 47 | 1010.7 |
| 20260503224334 | 56 | 251 | 9.0 | 16.0 | 0.00 | 0.00 | 0.00 | 47 | 1010.7 |
| 20260503223847 | 56 | 252 | 6.0 | 14.0 | 0.00 | 0.00 | 0.00 | 48 | 1010.8 |
| 20260503223329 | 56 | 240 | 6.0 | 17.0 | 0.00 | 0.00 | 0.00 | 48 | 1010.7 |
| 20260503222837 | 56 | 217 | 6.0 | 17.0 | 0.00 | 0.00 | 0.00 | 48 | 1010.7 |
| 20260503222339 | 56 | 223 | 8.0 | 14.0 | 0.00 | 0.00 | 0.00 | 48 | 1010.7 |
| 20260503221837 | 56 | 238 | 6.0 | 23.0 | 0.00 | 0.00 | 0.00 | 48 | 1010.7 |
| 20260503221319 | 56 | 247 | 12.0 | 23.0 | 0.00 | 0.00 | 0.00 | 47 | 1010.8 |
| 20260503220813 | 56 | 240 | 8.0 | 23.0 | 0.00 | 0.00 | 0.00 | 47 | 1010.8 |
| 20260503220338 | 56 | 238 | 10.0 | 23.0 | 0.00 | 0.00 | 0.00 | 47 | 1010.7 |
| 20260503215831 | 56 | 255 | 9.0 | 20.0 | 0.00 | 0.00 | 0.00 | 48 | 1010.8 |
| 20260503215313 | 56 | 273 | 9.0 | 23.0 | 0.00 | 0.00 | 0.00 | 49 | 1010.7 |
| 20260503214833 | 56 | 273 | 12.0 | 25.0 | 0.00 | 0.00 | 0.00 | 48 | 1010.7 |
| 20260503214317 | 56 | 260 | 10.0 | 25.0 | 0.00 | 0.00 | 0.00 | 46 | 1010.7 |
| 20260503213831 | 56 | 241 | 11.0 | 21.0 | 0.00 | 0.00 | 0.00 | 46 | 1010.7 |
| 20260503213336 | 56 | 236 | 11.0 | 29.0 | 0.00 | 0.00 | 0.00 | 44 | 1010.7 |
| 20260503212830 | 57 | 252 | 12.0 | 29.0 | 0.00 | 0.00 | 0.00 | 43 | 1010.7 |
| 20260503212315 | 57 | 269 | 10.0 | 23.0 | 0.00 | 0.00 | 0.00 | 43 | 1010.7 |
| 20260503211814 | 57 | 272 | 14.0 | 27.0 | 0.00 | 0.00 | 0.00 | 43 | 1010.7 |
| 20260503211317 | 57 | 247 | 14.0 | 27.0 | 0.00 | 0.00 | 0.00 | 43 | 1010.7 |
| 20260503210814 | 57 | 259 | 12.0 | 26.0 | 0.00 | 0.00 | 0.00 | 44 | 1010.8 |
| 20260503210337 | 57 | 266 | 11.0 | 25.0 | 0.00 | 0.00 | 0.00 | 42 | 1010.8 |
| 20260503205828 | 57 | 266 | 13.0 | 25.0 | 0.00 | 0.00 | 0.00 | 41 | 1010.8 |
| 20260503205331 | 57 | 279 | 12.0 | 26.0 | 0.00 | 0.00 | 0.00 | 41 | 1010.8 |
| 20260503204825 | 57 | 277 | 13.0 | 30.0 | 0.00 | 0.00 | 0.00 | 41 | 1010.9 |
| 20260503204324 | 57 | 240 | 12.0 | 24.0 | 0.00 | 0.00 | 0.00 | 42 | 1010.8 |
| 20260503203844 | 57 | 271 | 13.0 | 27.0 | 0.00 | 0.00 | 0.00 | 41 | 1011.0 |
| 20260503203327 | 58 | 244 | 14.0 | 28.0 | 0.00 | 0.00 | 0.00 | 41 | 1010.9 |
| 20260503202818 | 58 | 234 | 9.0 | 28.0 | 0.00 | 0.00 | 0.00 | 43 | 1010.8 |
| 20260503202338 | 58 | 235 | 14.0 | 26.0 | 0.00 | 0.00 | 0.00 | 41 | 1011.0 |
| 20260503201849 | 58 | 287 | 11.0 | 22.0 | 0.00 | 0.00 | 0.00 | 45 | 1010.9 |
| 20260503201352 | 58 | 260 | 13.0 | 22.0 | 0.00 | 0.00 | 0.00 | 45 | 1010.9 |
| 20260503200819 | 58 | 252 | 10.0 | 30.0 | 0.00 | 0.00 | 0.00 | 45 | 1011.1 |
| 20260503200322 | 57 | 257 | 13.0 | 30.0 | 0.00 | 0.00 | 0.00 | 45 | 1011.1 |
| 20260503195815 | 57 | 245 | 15.0 | 30.0 | 0.00 | 0.00 | 0.00 | 44 | 1011.2 |
| 20260503195337 | 57 | 252 | 14.0 | 26.0 | 0.00 | 0.00 | 0.00 | 46 | 1011.2 |
| 20260503194855 | 57 | 255 | 15.0 | 26.0 | 0.00 | 0.00 | 0.00 | 44 | 1011.3 |
| 20260503194336 | 57 | 250 | 14.0 | 26.0 | 0.00 | 0.00 | 0.00 | 46 | 1011.3 |
| 20260503193832 | 56 | 273 | 15.0 | 29.0 | 0.00 | 0.00 | 0.00 | 45 | 1011.5 |
| 20260503193335 | 56 | 267 | 13.0 | 29.0 | 0.00 | 0.00 | 0.00 | 45 | 1011.5 |
| 20260503192828 | 57 | 217 | 13.0 | 28.0 | 0.00 | 0.00 | 0.00 | 46 | 1011.6 |
| 20260503192332 | 57 | 247 | 12.0 | 28.0 | 0.00 | 0.00 | 0.00 | 47 | 1011.6 |
| 20260503191819 | 57 | 257 | 13.0 | 26.0 | 0.00 | 0.00 | 0.00 | 47 | 1011.7 |
| 20260503191322 | 56 | 240 | 14.0 | 35.0 | 0.00 | 0.00 | 0.00 | 46 | 1011.7 |
| 20260503190822 | 56 | 279 | 15.0 | 35.0 | 0.00 | 0.00 | 0.00 | 46 | 1011.8 |
| 20260503190325 | 56 | 271 | 12.0 | 23.0 | 0.00 | 0.00 | 0.00 | 49 | 1011.9 |
| 20260503185816 | 56 | 238 | 15.0 | 23.0 | 0.00 | 0.00 | 0.00 | 45 | 1012.0 |
| 20260503185339 | 56 | 248 | 13.0 | 24.0 | 0.00 | 0.00 | 0.00 | 46 | 1012.0 |
| 20260503184852 | 56 | 274 | 14.0 | 24.0 | 0.00 | 0.00 | 0.00 | 46 | 1012.1 |
| 20260503184336 | 56 | 257 | 14.0 | 27.0 | 0.00 | 0.00 | 0.00 | 46 | 1012.1 |
| 20260503183849 | 56 | 265 | 14.0 | 27.0 | 0.00 | 0.00 | 0.00 | 47 | 1012.2 |
| 20260503183331 | 56 | 275 | 14.0 | 25.0 | 0.00 | 0.00 | 0.00 | 48 | 1012.2 |
| 20260503182820 | 56 | 236 | 14.0 | 25.0 | 0.00 | 0.00 | 0.00 | 48 | 1012.2 |
| 20260503182324 | 56 | 258 | 12.0 | 22.0 | 0.00 | 0.00 | 0.00 | 48 | 1012.3 |
| 20260503181823 | 56 | 268 | 12.0 | 21.0 | 0.00 | 0.00 | 0.00 | 49 | 1012.3 |
| 20260503181326 | 56 | 245 | 10.0 | 19.0 | 0.00 | 0.00 | 0.00 | 53 | 1012.3 |
| 20260503180816 | 55 | 267 | 10.0 | 20.0 | 0.00 | 0.00 | 0.00 | 55 | 1012.4 |
| 20260503180338 | 55 | 252 | 10.0 | 20.0 | 0.00 | 0.00 | 0.00 | 54 | 1012.4 |
| 20260503175831 | 55 | 248 | 10.0 | 18.0 | 0.00 | 0.00 | 0.00 | 52 | 1012.6 |
| 20260503175315 | 55 | 278 | 11.0 | 21.0 | 0.00 | 0.00 | 0.00 | 52 | 1012.6 |
| 20260503174834 | 55 | 240 | 12.0 | 20.0 | 0.00 | 0.00 | 0.00 | 52 | 1012.6 |
| 20260503174316 | 55 | 250 | 9.0 | 22.0 | 0.00 | 0.00 | 0.00 | 52 | 1012.6 |
| 20260503173836 | 55 | 279 | 12.0 | 24.0 | 0.00 | 0.00 | 0.00 | 50 | 1012.7 |
| 20260503173320 | 55 | 267 | 14.0 | 24.0 | 0.00 | 0.00 | 0.00 | 48 | 1012.6 |
| 20260503172818 | 55 | 265 | 12.0 | 24.0 | 0.00 | 0.00 | 0.00 | 45 | 1012.6 |
| 20260503172338 | 55 | 232 | 10.0 | 20.0 | 0.00 | 0.00 | 0.00 | 46 | 1012.7 |
| 20260503171830 | 56 | 262 | 13.0 | 24.0 | 0.00 | 0.00 | 0.00 | 42 | 1012.7 |
| 20260503171332 | 57 | 257 | 12.0 | 24.0 | 0.00 | 0.00 | 0.00 | 41 | 1012.8 |
| 20260503170825 | 57 | 281 | 11.0 | 19.0 | 0.00 | 0.00 | 0.00 | 40 | 1012.7 |
| 20260503170328 | 58 | 209 | 11.0 | 19.0 | 0.00 | 0.00 | 0.00 | 41 | 1012.8 |
| 20260503150816 | 51 | 259 | 11.0 | 18.0 | 0.00 | 0.00 | 0.00 | 43 | 1014.4 |
| 20260503150319 | 51 | 296 | 8.0 | 15.0 | 0.00 | 0.00 | 0.00 | 50 | 1014.4 |
| 20260503131320 | 47 | 298 | 10.0 | 17.0 | 0.00 | 0.00 | 0.00 | 65 | 1014.9 |
| 20260503130839 | 47 | 226 | 9.0 | 20.0 | 0.00 | 0.00 | 0.00 | 66 | 1014.9 |
| 20260503130316 | 47 | 232 | 10.0 | 18.0 | 0.00 | 0.00 | 0.00 | 66 | 1014.9 |
| 20260503110826 | 40 | 231 | 3.0 | 10.0 | 0.00 | 0.00 | 0.00 | 79 | 1014.5 |
| 20260503110331 | 39 | 216 | 2.0 | 8.0 | 0.00 | 0.00 | 0.00 | 79 | 1014.5 |
| 20260503090320 | 38 | 200 | 1.0 | 6.0 | 0.00 | 0.00 | 0.00 | 77 | 1014.5 |
| 20260503081320 | 37 | 184 | 1.0 | 4.0 | 0.00 | 0.00 | 0.00 | 79 | 1014.7 |
| 20260503080815 | 38 | 188 | 1.0 | 3.0 | 0.00 | 0.00 | 0.00 | 79 | 1014.7 |
| 20260503080319 | 37 | 188 | 1.0 | 4.0 | 0.00 | 0.00 | 0.00 | 79 | 1014.8 |
| 20260503072832 | 38 | 191 | 1.0 | 4.0 | 0.00 | 0.00 | 0.00 | 78 | 1014.7 |
| 20260503072316 | 37 | 208 | 2.0 | 4.0 | 0.00 | 0.00 | 0.00 | 78 | 1014.7 |
| 20260503071835 | 37 | 206 | 2.0 | 4.0 | 0.00 | 0.00 | 0.00 | 78 | 1014.8 |
| 20260503071338 | 37 | 203 | 1.0 | 5.0 | 0.00 | 0.00 | 0.00 | 78 | 1014.8 |
| 20260503070831 | 37 | 204 | 1.0 | 5.0 | 0.00 | 0.00 | 0.00 | 78 | 1014.8 |
| 20260503070335 | 37 | 180 | 2.0 | 5.0 | 0.00 | 0.00 | 0.00 | 78 | 1014.7 |
| 20260503060334 | 38 | 190 | 1.0 | 3.0 | 0.00 | 0.00 | 0.00 | 78 | 1015.1 |
| 20260503054840 | 38 | 191 | 2.0 | 5.0 | 0.00 | 0.00 | 0.00 | 77 | 1015.2 |
| 20260503054320 | 38 | 180 | 2.0 | 6.0 | 0.00 | 0.00 | 0.00 | 77 | 1015.2 |
| 20260503053818 | 38 | 198 | 2.0 | 6.0 | 0.00 | 0.00 | 0.00 | 78 | 1015.2 |
| 20260503053339 | 38 | 195 | 1.0 | 5.0 | 0.00 | 0.00 | 0.00 | 78 | 1015.2 |
| 20260503052831 | 38 | 191 | 2.0 | 4.0 | 0.00 | 0.00 | 0.00 | 77 | 1015.2 |
| 20260503052314 | 39 | 190 | 0.0 | 4.0 | 0.00 | 0.00 | 0.00 | 77 | 1015.3 |
| 20260503051855 | 39 | 193 | 2.0 | 4.0 | 0.00 | 0.00 | 0.00 | 76 | 1015.3 |
| 20260503051316 | 39 | 232 | 0.0 | 2.0 | 0.00 | 0.00 | 0.00 | 75 | 1015.3 |
| 20260503050814 | 40 | 232 | 0.0 | 3.0 | 0.00 | 0.00 | 0.00 | 74 | 1015.3 |
| 20260503050318 | 41 | 232 | 0.0 | 4.0 | 0.00 | 0.00 | 0.00 | 74 | 1015.3 |
| 20260503045831 | 41 | 242 | 0.0 | 9.0 | 0.00 | 0.00 | 0.00 | 74 | 1015.3 |
| 20260503045314 | 41 | 249 | 3.0 | 9.0 | 0.00 | 0.00 | 0.00 | 74 | 1015.4 |
| 20260503044815 | 41 | 232 | 4.0 | 11.0 | 0.00 | 0.00 | 0.00 | 74 | 1015.3 |
| 20260503044339 | 41 | 257 | 5.0 | 14.0 | 0.00 | 0.00 | 0.00 | 73 | 1015.4 |
| 20260503043830 | 41 | 246 | 7.0 | 14.0 | 0.00 | 0.00 | 0.00 | 73 | 1015.4 |
| 20260503043334 | 41 | 259 | 5.0 | 15.0 | 0.00 | 0.00 | 0.00 | 74 | 1015.4 |
| 20260503042827 | 41 | 252 | 7.0 | 15.0 | 0.00 | 0.00 | 0.00 | 74 | 1015.4 |
| 20260503042324 | 41 | 235 | 4.0 | 15.0 | 0.00 | 0.00 | 0.00 | 74 | 1015.5 |
| 20260503041823 | 41 | 234 | 8.0 | 15.0 | 0.00 | 0.00 | 0.00 | 74 | 1015.5 |
| 20260503041326 | 41 | 271 | 6.0 | 12.0 | 0.00 | 0.00 | 0.00 | 75 | 1015.5 |
| 20260503040825 | 41 | 238 | 5.0 | 12.0 | 0.00 | 0.00 | 0.00 | 74 | 1015.5 |
| 20260503040329 | 41 | 254 | 6.0 | 12.0 | 0.00 | 0.00 | 0.00 | 74 | 1015.5 |
| 20260503035833 | 41 | 244 | 4.0 | 12.0 | 0.00 | 0.00 | 0.00 | 74 | 1015.5 |
| 20260503035317 | 41 | 248 | 6.0 | 15.0 | 0.00 | 0.00 | 0.00 | 75 | 1015.5 |
| 20260503034815 | 41 | 238 | 8.0 | 15.0 | 0.00 | 0.00 | 0.00 | 75 | 1015.6 |
| 20260503034318 | 41 | 239 | 5.0 | 10.0 | 0.00 | 0.00 | 0.00 | 75 | 1015.6 |
| 20260503033839 | 41 | 255 | 4.0 | 9.0 | 0.00 | 0.00 | 0.00 | 75 | 1015.6 |
| 20260503033321 | 41 | 263 | 5.0 | 15.0 | 0.00 | 0.00 | 0.00 | 74 | 1015.6 |
| 20260503032819 | 41 | 237 | 6.0 | 15.0 | 0.00 | 0.00 | 0.00 | 74 | 1015.6 |
| 20260503032321 | 41 | 248 | 4.0 | 11.0 | 0.00 | 0.00 | 0.00 | 75 | 1015.7 |
| 20260503031816 | 42 | 244 | 4.0 | 10.0 | 0.00 | 0.00 | 0.00 | 74 | 1015.7 |
| 20260503031340 | 42 | 281 | 5.0 | 11.0 | 0.00 | 0.00 | 0.00 | 74 | 1015.7 |
| 20260503030831 | 42 | 237 | 4.0 | 10.0 | 0.00 | 0.00 | 0.00 | 74 | 1015.7 |
| 20260503030336 | 42 | 248 | 4.0 | 10.0 | 0.00 | 0.00 | 0.00 | 74 | 1015.8 |
| 20260503025830 | 42 | 254 | 3.0 | 10.0 | 0.00 | 0.00 | 0.00 | 73 | 1015.8 |
| 20260503025315 | 42 | 225 | 6.0 | 10.0 | 0.00 | 0.00 | 0.00 | 73 | 1015.8 |
| 20260503024815 | 42 | 218 | 4.0 | 12.0 | 0.00 | 0.00 | 0.00 | 73 | 1015.8 |
| 20260503024319 | 42 | 270 | 6.0 | 12.0 | 0.00 | 0.00 | 0.00 | 73 | 1015.9 |
| 20260503023838 | 42 | 236 | 4.0 | 10.0 | 0.00 | 0.00 | 0.00 | 74 | 1015.8 |
| 20260503023322 | 42 | 246 | 4.0 | 10.0 | 0.00 | 0.00 | 0.00 | 73 | 1015.9 |
| 20260503022834 | 42 | 216 | 3.0 | 9.0 | 0.00 | 0.00 | 0.00 | 73 | 1016.0 |
| 20260503022359 | 42 | 262 | 3.0 | 9.0 | 0.00 | 0.00 | 0.00 | 74 | 1016.0 |
| 20260503021856 | 42 | 240 | 4.0 | 9.0 | 0.00 | 0.00 | 0.00 | 73 | 1016.0 |
| 20260503021316 | 42 | 236 | 3.0 | 5.0 | 0.00 | 0.00 | 0.00 | 74 | 1016.1 |
| 20260503020816 | 42 | 242 | 2.0 | 7.0 | 0.00 | 0.00 | 0.00 | 74 | 1016.1 |
| 20260503020339 | 42 | 243 | 2.0 | 7.0 | 0.00 | 0.00 | 0.00 | 73 | 1016.0 |
| 20260503015852 | 42 | 210 | 1.0 | 11.0 | 0.00 | 0.00 | 0.00 | 73 | 1016.0 |
| 20260503015335 | 42 | 270 | 4.0 | 11.0 | 0.00 | 0.00 | 0.00 | 73 | 1015.9 |
| 20260503014825 | 42 | 248 | 2.0 | 9.0 | 0.00 | 0.00 | 0.00 | 73 | 1015.9 |
| 20260503014325 | 42 | 234 | 3.0 | 5.0 | 0.00 | 0.00 | 0.00 | 73 | 1015.9 |
| 20260503013819 | 42 | 228 | 2.0 | 5.0 | 0.00 | 0.00 | 0.00 | 73 | 1016.0 |
| 20260503013341 | 42 | 266 | 3.0 | 8.0 | 0.00 | 0.00 | 0.00 | 73 | 1016.0 |
| 20260503012817 | 42 | 246 | 3.0 | 8.0 | 0.00 | 0.00 | 0.00 | 72 | 1016.0 |
| 20260503012318 | 42 | 246 | 4.0 | 9.0 | 0.00 | 0.00 | 0.00 | 72 | 1016.0 |
| 20260503011836 | 42 | 262 | 5.0 | 9.0 | 0.00 | 0.00 | 0.00 | 72 | 1016.0 |
| 20260503011321 | 42 | 275 | 3.0 | 9.0 | 0.00 | 0.00 | 0.00 | 72 | 1016.0 |
| 20260503010832 | 42 | 241 | 3.0 | 10.0 | 0.00 | 0.00 | 0.00 | 72 | 1016.0 |
| 20260503010315 | 42 | 246 | 4.0 | 10.0 | 0.00 | 0.00 | 0.00 | 71 | 1015.9 |
| 20260503005833 | 42 | 259 | 5.0 | 10.0 | 0.00 | 0.00 | 0.00 | 71 | 1015.9 |
| 20260503005339 | 42 | 245 | 4.0 | 9.0 | 0.00 | 0.00 | 0.00 | 70 | 1015.9 |
| 20260503004853 | 42 | 257 | 4.0 | 9.0 | 0.00 | 0.00 | 0.00 | 69 | 1015.9 |
| 20260503004316 | 42 | 244 | 5.0 | 10.0 | 0.00 | 0.00 | 0.00 | 69 | 1015.9 |
| 20260503003833 | 42 | 239 | 5.0 | 10.0 | 0.00 | 0.00 | 0.00 | 69 | 1015.8 |
| 20260503003317 | 42 | 247 | 5.0 | 9.0 | 0.00 | 0.00 | 0.00 | 69 | 1015.8 |
| 20260503002815 | 42 | 243 | 3.0 | 9.0 | 0.00 | 0.00 | 0.00 | 69 | 1015.8 |
| 20260503002338 | 42 | 244 | 5.0 | 10.0 | 0.00 | 0.00 | 0.00 | 69 | 1015.8 |
| 20260503001851 | 42 | 240 | 5.0 | 10.0 | 0.00 | 0.00 | 0.00 | 69 | 1015.8 |
| 20260503001354 | 42 | 244 | 4.0 | 8.0 | 0.00 | 0.00 | 0.00 | 71 | 1015.9 |
| 20260503000826 | 42 | 238 | 4.0 | 8.0 | 0.00 | 0.00 | 0.00 | 71 | 1015.9 |
| 20260503000326 | 42 | 240 | 3.0 | 8.0 | 0.00 | 0.00 | 0.00 | 71 | 1015.9 |
| 20260502235825 | 42 | 240 | 5.0 | 8.0 | 0.00 | 0.00 | 0.00 | 70 | 1015.9 |
| 20260502235328 | 42 | 232 | 3.0 | 11.0 | 0.00 | 0.00 | 0.00 | 70 | 1015.8 |
| 20260502234821 | 42 | 265 | 6.0 | 11.0 | 0.00 | 0.00 | 0.00 | 69 | 1015.8 |
| 20260502234323 | 42 | 276 | 4.0 | 10.0 | 0.00 | 0.00 | 0.00 | 71 | 1015.8 |
| 20260502233817 | 42 | 232 | 5.0 | 10.0 | 0.00 | 0.00 | 0.00 | 69 | 1015.8 |